This is the latest recevied weather packets stored in our database for station/object IK2ILW-4. If no packets are shown the sender has not sent any weather packets the latest 10 day(s).
| Time | Temp. | Humidity | Pressure | Rain* | Wind** | Luminosity | Snow |
|---|---|---|---|---|---|---|---|
| 1777893465 | 13.33° C | 56% | 1019.8 hPa | 0 mm | - | 341 W/m² | - |
| 1777893161 | 13.89° C | 56% | 1019.8 hPa | 0 mm | - | 336 W/m² | - |
| 1777892857 | 13.89° C | 56% | 1019.8 hPa | 0 mm | - | 348 W/m² | - |
| 1777892560 | 14.44° C | 54% | 1019.8 hPa | 0 mm | - | 380 W/m² | - |
| 1777892256 | 14.44° C | 53% | 1019.9 hPa | 0 mm | - | 401 W/m² | - |
| 1777891972 | 14.44° C | 55% | 1019.9 hPa | 0 mm | - | 424 W/m² | - |
| 1777891667 | 13.89° C | 57% | 1019.9 hPa | 0 mm | - | 413 W/m² | - |
| 1777891363 | 14.44° C | 55% | 1020.2 hPa | 0 mm | - | 455 W/m² | - |
| 1777891062 | 13.89° C | 53% | 1020.2 hPa | 0 mm | - | 494 W/m² | - |
| 1777890758 | 14.44° C | 56% | 1020.2 hPa | 0 mm | - | 577 W/m² | - |
| 1777890454 | 13.89° C | 56% | 1020.2 hPa | 0 mm | - | 756 W/m² | - |
| 1777890169 | 15° C | 54% | 1020.2 hPa | 0 mm | - | 940 W/m² | - |
| 1777889865 | 14.44° C | 57% | 1020.2 hPa | 0 mm | - | 751 W/m² | - |
| 1777889561 | 13.89° C | 57% | 1020.2 hPa | 0 mm | - | 1021 W/m² | - |
| 1777889257 | 13.89° C | 56% | 1020.2 hPa | 0 mm | - | 615 W/m² | - |
| 1777888956 | 13.89° C | 55% | 1020.2 hPa | 0 mm | - | 527 W/m² | - |
| 1777888652 | 13.89° C | 54% | 1020.3 hPa | 0 mm | - | 487 W/m² | - |
| 1777888370 | 13.89° C | 56% | 1020.3 hPa | 0 mm | - | 506 W/m² | - |
| 1777888051 | 13.89° C | 59% | 1020.3 hPa | 0 mm | - | 471 W/m² | - |
| 1777887770 | 13.33° C | 57% | 1020.3 hPa | 0 mm | - | 441 W/m² | - |
| 1777887465 | 13.33° C | 56% | 1020.3 hPa | 0 mm | - | 427 W/m² | - |
| 1777887161 | 13.33° C | 55% | 1020.3 hPa | 0 mm | - | 367 W/m² | - |
| 1777886857 | 13.33° C | 55% | 1020.2 hPa | 0 mm | - | 339 W/m² | - |
| 1777886556 | 13.33° C | 54% | 1020.2 hPa | 0 mm | - | 420 W/m² | - |
| 1777886257 | 13.89° C | 56% | 1020.2 hPa | 0 mm | - | 670 W/m² | - |
* Rain since midnight (hover to see other rain measurements)
** Current wind speed in m/s (hover to see current wind gust speed)